Good Hope, IL

12:01 AM CDT on August 24, 2016 (GMT -0500)
Macomb Municipal

Weather History for KMQB - October, 2011

Change the Weather History Date:

Wednesday, October 19, 2011

  Actual Average (KBRL) Record (KBRL)
Temperature  
Mean Temperature 48 °F 54 °F  
Max Temperature 51 °F 65 °F 85 °F (1953)
Min Temperature 44 °F 44 °F 18 °F (1972)
Degree Days  
Heating Degree Days 18 11  
Month to date heating degree days 162  
Since 1 July heating degree days 233  
Cooling Degree Days 0 0  
Month to date cooling degree days 19  
Year to date cooling degree days 1201  
Moisture  
Dew Point 36 °F    
Average Humidity 66    
Maximum Humidity 76    
Minimum Humidity 47    
Precipitation  
Precipitation 0.00 in 0.10 in 1.95 in (1962)
Month to date precipitation 1.98  
Year to date precipitation 32.75  
Sea Level Pressure  
Sea Level Pressure 29.84 in    
Wind  
Wind Speed 15 mph (NNW)    
Max Wind Speed 29 mph    
Max Gust Speed 34 mph    
Visibility 10 miles    
Events      
T = Trace of Precipitation, MM = Missing Value Source: NWS Daily Summary

Daily Weather History Graph

Daily Weather History Graph

Search for Another Location

Airport or City:

Trip Planner

Search our weather history database for the weather conditions in past years. The results will help you decide how hot, cold, wet, or windy it might be!

Date:

Astronomy

Oct. 19, 2011 Rise Set
Actual Time 7:17 AM CDT 6:16 PM CDT
Civil Twilight 6:49 AM CDT 6:44 PM CDT
Nautical Twilight 6:18 AM CDT 7:16 PM CDT
Astronomical Twilight 5:46 AM CDT 7:47 PM CDT
Moon No Moon Rise 1:49 PM CDT (10/19)
Length of Visible Light 11h 54m
Length of Day
10h 59m
Waning Gibbous, 54% of the Moon is Illuminated
Oct 19
Waning Gibbous
Oct 19
Last Quarter
Oct 26
New
Nov 2
First Quarter
Nov 10
Full

Hourly Weather History & Observations

Time (CDT) Temp. Windchill Dew Point Humidity Pressure Visibility Wind Dir Wind Speed Gust Speed Precip Events Conditions
12:15 AM 44.6 °F 39.2 °F 37.4 °F 76% 29.88 in 10.0 mi NNW 10.4 mph - N/A   Overcast
12:35 AM 44.6 °F 38.1 °F 37.4 °F 76% 29.87 in 10.0 mi NNW 13.8 mph - N/A   Overcast
12:55 AM 44.6 °F 38.4 °F 37.4 °F 76% 29.87 in 10.0 mi NNW 12.7 mph - N/A   Overcast
1:15 AM 44.6 °F 38.8 °F 37.4 °F 76% 29.87 in 5.0 mi NNW 11.5 mph 17.3 mph N/A   Haze
1:35 AM 44.6 °F 39.7 °F 37.4 °F 76% 29.87 in 10.0 mi NNW 9.2 mph 16.1 mph N/A   Overcast
1:55 AM 44.6 °F 40.2 °F 37.4 °F 76% 29.86 in 10.0 mi NNW 8.1 mph - N/A   Overcast
2:15 AM 44.6 °F 39.7 °F 37.4 °F 76% 29.86 in 10.0 mi NNW 9.2 mph - N/A   Overcast
2:35 AM 44.6 °F 39.2 °F 37.4 °F 76% 29.86 in 10.0 mi North 10.4 mph - N/A   Overcast
2:55 AM 44.6 °F 39.7 °F 37.4 °F 76% 29.85 in 10.0 mi NNW 9.2 mph - N/A   Overcast
3:15 AM 44.6 °F 39.7 °F 37.4 °F 76% 29.85 in 10.0 mi NNW 9.2 mph - N/A   Overcast
3:35 AM 44.6 °F 38.8 °F 37.4 °F 76% 29.84 in 10.0 mi NNW 11.5 mph - N/A   Overcast
3:55 AM 44.6 °F 38.4 °F 37.4 °F 76% 29.84 in 10.0 mi NNW 12.7 mph 17.3 mph N/A   Overcast
4:15 AM 44.6 °F 38.4 °F 37.4 °F 76% 29.84 in 10.0 mi North 12.7 mph - N/A   Overcast
4:35 AM 44.6 °F 38.4 °F 37.4 °F 76% 29.84 in 10.0 mi North 12.7 mph - N/A   Overcast
4:55 AM 44.6 °F 38.4 °F 37.4 °F 76% 29.84 in 10.0 mi North 12.7 mph 18.4 mph N/A   Overcast
5:15 AM 44.6 °F 38.4 °F 37.4 °F 76% 29.84 in 10.0 mi North 12.7 mph - N/A   Overcast
5:35 AM 44.6 °F 38.8 °F 37.4 °F 76% 29.84 in 10.0 mi NNW 11.5 mph - N/A   Overcast
5:55 AM 44.6 °F 38.4 °F 37.4 °F 76% 29.84 in 10.0 mi NNW 12.7 mph - N/A   Overcast
6:15 AM 44.6 °F 38.4 °F 37.4 °F 76% 29.84 in 10.0 mi NNW 12.7 mph - N/A   Overcast
6:35 AM 44.6 °F 38.1 °F 37.4 °F 76% 29.84 in 10.0 mi North 13.8 mph - N/A   Overcast
6:55 AM 44.6 °F 38.4 °F 37.4 °F 76% 29.84 in 10.0 mi North 12.7 mph - N/A   Overcast
7:15 AM 44.6 °F 38.1 °F 37.4 °F 76% 29.84 in 10.0 mi North 13.8 mph 19.6 mph N/A   Overcast
7:35 AM 44.6 °F 38.4 °F 37.4 °F 76% 29.84 in 10.0 mi North 12.7 mph - N/A   Overcast
7:55 AM 44.6 °F 38.4 °F 37.4 °F 76% 29.84 in 10.0 mi North 12.7 mph - N/A   Overcast
8:15 AM 44.6 °F 37.4 °F 37.4 °F 76% 29.85 in 10.0 mi NNW 16.1 mph 21.9 mph N/A   Overcast
8:35 AM 44.6 °F 37.4 °F 37.4 °F 76% 29.85 in 10.0 mi North 16.1 mph 21.9 mph N/A   Overcast
8:55 AM 46.4 °F 39.5 °F 37.4 °F 71% 29.85 in 10.0 mi North 17.3 mph - N/A   Mostly Cloudy
9:15 AM 46.4 °F 39.8 °F 37.4 °F 71% 29.85 in 10.0 mi North 16.1 mph 24.2 mph N/A   Overcast
9:35 AM 46.4 °F 39.2 °F 37.4 °F 71% 29.85 in 10.0 mi North 18.4 mph 24.2 mph N/A   Overcast
9:55 AM 46.4 °F 39.0 °F 37.4 °F 71% 29.85 in 10.0 mi North 19.6 mph 23.0 mph N/A   Overcast
10:15 AM 48.2 °F - 37.4 °F 66% 29.85 in 10.0 mi North 17.3 mph 25.3 mph N/A   Overcast
10:35 AM 48.2 °F - 37.4 °F 66% 29.85 in 10.0 mi North 18.4 mph 25.3 mph N/A   Overcast
10:55 AM 48.2 °F - 37.4 °F 66% 29.85 in 10.0 mi North 18.4 mph 21.9 mph N/A   Overcast
11:15 AM 48.2 °F - 35.6 °F 62% 29.85 in 10.0 mi North 18.4 mph 26.5 mph N/A   Overcast
11:35 AM 50.0 °F - 33.8 °F 54% 29.84 in 10.0 mi North 18.4 mph 29.9 mph N/A   Overcast
11:55 AM 48.2 °F - 35.6 °F 62% 29.84 in 10.0 mi North 17.3 mph 24.2 mph N/A   Overcast
12:15 PM 50.0 °F - 33.8 °F 54% 29.83 in 10.0 mi North 23.0 mph 27.6 mph N/A   Overcast
12:35 PM 50.0 °F - 32.0 °F 50% 29.83 in - North 28.8 mph - N/A   Unknown
12:55 PM 50.0 °F - 32.0 °F 50% 29.82 in 10.0 mi NNW 25.3 mph 29.9 mph N/A   Overcast
1:15 PM 51.8 °F - 32.0 °F 47% 29.82 in 10.0 mi North 19.6 mph 31.1 mph N/A   Mostly Cloudy
1:35 PM 51.8 °F - 32.0 °F 47% 29.81 in 10.0 mi North 25.3 mph 34.5 mph N/A   Overcast
1:55 PM 51.8 °F - 32.0 °F 47% 29.80 in 10.0 mi NNW 27.6 mph 34.5 mph N/A   Overcast
2:15 PM 50.0 °F - 32.0 °F 50% 29.81 in 10.0 mi NNW 24.2 mph 34.5 mph N/A   Overcast
2:35 PM 50.0 °F - 32.0 °F 50% 29.81 in 10.0 mi North 24.2 mph 33.4 mph N/A   Overcast
2:55 PM 50.0 °F - 32.0 °F 50% 29.81 in 10.0 mi North 23.0 mph 28.8 mph N/A   Overcast
3:15 PM 50.0 °F - 32.0 °F 50% 29.81 in 10.0 mi NNW 25.3 mph 32.2 mph N/A   Overcast
3:35 PM 50.0 °F - 33.8 °F 54% 29.81 in 10.0 mi North 23.0 mph 31.1 mph N/A   Overcast
3:55 PM 48.2 °F - 33.8 °F 58% 29.82 in 10.0 mi North 24.2 mph 31.1 mph N/A   Overcast
4:15 PM 48.2 °F - 33.8 °F 58% 29.82 in 10.0 mi NNW 19.6 mph 28.8 mph N/A   Overcast
4:35 PM 48.2 °F - 33.8 °F 58% 29.81 in 10.0 mi NNW 21.9 mph 26.5 mph N/A   Overcast
4:55 PM 48.2 °F - 33.8 °F 58% 29.82 in 10.0 mi NNW 18.4 mph 31.1 mph N/A   Overcast
5:15 PM 48.2 °F - 33.8 °F 58% 29.82 in 10.0 mi North 19.6 mph 25.3 mph N/A   Overcast
5:35 PM 50.0 °F - 33.8 °F 54% 29.82 in 10.0 mi NNW 17.3 mph 24.2 mph N/A   Overcast
5:55 PM 48.2 °F - 33.8 °F 58% 29.83 in 10.0 mi NNW 20.7 mph 28.8 mph N/A   Overcast
6:15 PM 48.2 °F - 33.8 °F 58% 29.83 in 10.0 mi NNW 18.4 mph 26.5 mph N/A   Overcast
6:35 PM 48.2 °F - 33.8 °F 58% 29.83 in 10.0 mi NNW 19.6 mph 26.5 mph N/A   Overcast
6:55 PM 48.2 °F - 33.8 °F 58% 29.83 in 10.0 mi NNW 20.7 mph 27.6 mph N/A   Overcast
7:15 PM 48.2 °F - 33.8 °F 58% 29.83 in 10.0 mi NNW 18.4 mph 27.6 mph N/A   Overcast
7:35 PM 48.2 °F - 33.8 °F 58% 29.83 in 10.0 mi NNW 20.7 mph 26.5 mph N/A   Overcast
7:55 PM 48.2 °F - 33.8 °F 58% 29.83 in 10.0 mi NNW 17.3 mph 24.2 mph N/A   Overcast
8:15 PM 48.2 °F - 33.8 °F 58% 29.82 in 10.0 mi NNW 20.7 mph 26.5 mph N/A   Overcast
8:35 PM 48.2 °F - 33.8 °F 58% 29.82 in 10.0 mi NNW 21.9 mph 28.8 mph N/A   Overcast
8:55 PM 48.2 °F - 33.8 °F 58% 29.82 in 10.0 mi NNW 19.6 mph 26.5 mph N/A   Overcast
9:15 PM 48.2 °F - 33.8 °F 58% 29.82 in 10.0 mi NNW 19.6 mph 28.8 mph N/A   Overcast
9:35 PM 48.2 °F - 33.8 °F 58% 29.82 in 10.0 mi NNW 23.0 mph 29.9 mph N/A   Overcast
9:55 PM 48.2 °F - 33.8 °F 58% 29.82 in 10.0 mi NNW 21.9 mph 27.6 mph N/A   Overcast
10:15 PM 48.2 °F - 32.0 °F 54% 29.82 in 10.0 mi NNW 18.4 mph 26.5 mph N/A   Overcast
10:35 PM 48.2 °F - 32.0 °F 54% 29.81 in 10.0 mi NNW 23.0 mph 31.1 mph N/A   Overcast
10:55 PM 48.2 °F - 32.0 °F 54% 29.80 in 10.0 mi NNW 23.0 mph 28.8 mph N/A   Overcast
11:15 PM 48.2 °F - 32.0 °F 54% 29.80 in 10.0 mi NNW 19.6 mph 27.6 mph N/A   Overcast
11:35 PM 46.4 °F 39.0 °F 32.0 °F 57% 29.79 in 10.0 mi NW 19.6 mph 26.5 mph N/A   Overcast
11:55 PM 46.4 °F 38.5 °F 32.0 °F 57% 29.79 in 10.0 mi NW 21.9 mph 27.6 mph N/A   Overcast